This is the latest recevied weather packets stored in our database for station/object KC8P. If no packets are shown the sender has not sent any weather packets the latest 10 day(s).
| Time | Temp. | Humidity | Pressure | Rain* | Wind** | Luminosity | Snow |
|---|---|---|---|---|---|---|---|
| 1778260499 | 15.56° C | 39% | 1010.8 hPa | 0 mm | - | 722 W/m² | - |
| 1778260433 | 15.56° C | 39% | 1010.8 hPa | 0 mm | - | 730 W/m² | - |
| 1778260368 | 15.56° C | 39% | 1010.4 hPa | 0 mm | - | 741 W/m² | - |
| 1778260303 | 15° C | 40% | 1010.4 hPa | 0 mm | - | 746 W/m² | - |
| 1778260239 | 15° C | 39% | 1010.4 hPa | 0 mm | - | 741 W/m² | - |
| 1778260173 | 15° C | 40% | 1010.8 hPa | 0 mm | - | 726 W/m² | - |
| 1778260110 | 15° C | 38% | 1010.8 hPa | 0 mm | - | 720 W/m² | - |
| 1778260044 | 15° C | 41% | 1010.8 hPa | 0 mm | - | 706 W/m² | - |
| 1778259978 | 15° C | 40% | 1010.8 hPa | 0 mm | - | 707 W/m² | - |
| 1778259913 | 14.44° C | 40% | 1010.8 hPa | 0 mm | - | 707 W/m² | - |
| 1778259847 | 14.44° C | 40% | 1010.8 hPa | 0 mm | - | 720 W/m² | - |
| 1778259782 | 14.44° C | 41% | 1010.8 hPa | 0 mm | - | 727 W/m² | - |
| 1778259729 | 14.44° C | 39% | 1010.8 hPa | 0 mm | - | 728 W/m² | - |
| 1778259664 | 14.44° C | 39% | 1010.8 hPa | 0 mm | - | 736 W/m² | - |
| 1778259585 | 14.44° C | 39% | 1010.8 hPa | 0 mm | - | 744 W/m² | - |
| 1778259519 | 14.44° C | 40% | 1010.8 hPa | 0 mm | - | 742 W/m² | - |
| 1778259455 | 14.44° C | 39% | 1010.8 hPa | 0 mm | - | 738 W/m² | - |
| 1778259388 | 14.44° C | 39% | 1010.8 hPa | 0 mm | - | 746 W/m² | - |
| 1778259323 | 14.44° C | 40% | 1010.8 hPa | 0 mm | - | 752 W/m² | - |
| 1778259257 | 14.44° C | 41% | 1010.8 hPa | 0 mm | - | 750 W/m² | - |
| 1778259192 | 14.44° C | 41% | 1010.8 hPa | 0 mm | - | 755 W/m² | - |
| 1778259125 | 14.44° C | 38% | 1010.8 hPa | 0 mm | - | 752 W/m² | - |
| 1778259061 | 14.44° C | 39% | 1010.8 hPa | 0 mm | - | 757 W/m² | - |
| 1778258995 | 15° C | 38% | 1010.8 hPa | 0 mm | - | 755 W/m² | - |
| 1778258930 | 15° C | 37% | 1010.8 hPa | 0 mm | - | 751 W/m² | - |
* Rain latest hour (hover to see other rain measurements)
** Current wind speed in m/s (hover to see current wind gust speed)